Spencer, IA

10:28 AM CDT on April 23, 2018 (GMT -0500)
Spencer Municipal

Weather History for KSPW - February, 2014

Change the Weather History Date:

Wednesday, February 5, 2014

  Actual Average Record
Temperature  
Mean Temperature -4 °F -  
Max Temperature 3 °F 22 °F 57 °F (2005)
Min Temperature -11 °F 4 °F -20 °F (1979)
Degree Days  
Heating Degree Days 69    
Moisture  
Dew Point -8 °F    
Average Humidity 71    
Maximum Humidity 78    
Minimum Humidity 63    
Precipitation  
Precipitation 0.00 in - - ()
Sea Level Pressure  
Sea Level Pressure 30.61 in    
Wind  
Wind Speed 18 mph (NW)    
Max Wind Speed 23 mph    
Max Gust Speed 29 mph    
Visibility 7 miles    
Events Snow    
Averages and records for this station are not official NWS values.
T = Trace of Precipitation, MM = Missing Value Source: NWS Daily Summary

Daily Weather History Graph

Daily Weather History Graph

Search for Another Location

Airport or City:

Astronomy

Feb. 05, 2014 Rise Set
Actual Time 7:31 AM CST 5:38 PM CST
Civil Twilight 7:01 AM CST 6:08 PM CST
Nautical Twilight 6:27 AM CST 6:42 PM CST
Astronomical Twilight 5:54 AM CST 7:15 PM CST
Moon 10:35 AM CST (2/5) No Moon Set
Length of Visible Light 11h 06m
Length of Day
10h 06m
Waxing Crescent, 39% of the Moon is Illuminated
Feb 5
Waxing Crescent
Feb 6
First Quarter
Feb 14
Full
Feb 22
Last Quarter
Mar 1
New

Hourly Weather History & Observations

Time (CST) Temp. Windchill Dew Point Humidity Pressure Visibility Wind Dir Wind Speed Gust Speed Precip Events Conditions
12:53 AM -0.0 °F -23.3 °F -7.1 °F 72% 30.53 in 4.0 mi North 23.0 mph 28.8 mph 0.00 in   Overcast
1:53 AM -0.0 °F -21.3 °F -8.0 °F 69% 30.54 in 5.0 mi North 18.4 mph - 0.00 in   Overcast
2:53 AM -0.0 °F -22.4 °F -8.0 °F 69% 30.56 in 4.0 mi North 20.7 mph - 0.00 in Snow Light Snow
3:53 AM -0.9 °F -22.4 °F -8.0 °F 72% 30.56 in 6.0 mi North 18.4 mph 27.6 mph 0.00 in   Overcast
4:53 AM -0.0 °F -21.8 °F -9.0 °F 66% 30.58 in 9.0 mi North 19.6 mph - 0.00 in   Overcast
5:53 AM -0.9 °F -21.9 °F -8.0 °F 72% 30.59 in 7.0 mi North 17.3 mph - 0.00 in   Overcast
6:53 AM -0.0 °F -21.3 °F -7.1 °F 72% 30.61 in 8.0 mi NNW 18.4 mph - N/A   Overcast
7:53 AM -0.0 °F -20.7 °F -7.1 °F 72% 30.62 in 10.0 mi NNW 17.3 mph - N/A   Overcast
8:31 AM -0.0 °F -20.1 °F -7.1 °F 72% 30.52 in 6.0 mi NNW 16.1 mph - N/A Snow Blowing Snow
8:53 AM 1.0 °F -19.3 °F -7.1 °F 69% 30.63 in 10.0 mi NNW 17.3 mph - N/A   Overcast
9:53 AM 1.9 °F -18.1 °F -6.0 °F 69% 30.64 in 9.0 mi NNW 17.3 mph - 0.00 in   Overcast
10:53 AM 3.0 °F -18.3 °F -5.1 °F 69% 30.65 in 2.5 mi NNW 20.7 mph - N/A Snow Blowing Snow
11:05 AM 3.0 °F -17.3 °F -5.1 °F 69% 30.54 in 5.0 mi NNW 18.4 mph 26.5 mph N/A   Haze
11:53 AM 3.0 °F -18.8 °F -6.0 °F 66% 30.65 in 9.0 mi NNW 21.9 mph 26.5 mph N/A   Mostly Cloudy
12:53 PM 3.9 °F -15.6 °F -6.0 °F 64% 30.64 in 9.0 mi NW 17.3 mph 27.6 mph N/A   Mostly Cloudy
1:53 PM 3.9 °F -16.6 °F -6.0 °F 64% 30.62 in 4.0 mi NNW 19.6 mph 26.5 mph 0.00 in   Overcast
2:53 PM 3.9 °F -15.0 °F -5.1 °F 66% 30.62 in 5.0 mi NW 16.1 mph - 0.00 in   Mostly Cloudy
3:53 PM 3.9 °F -15.6 °F -5.1 °F 66% 30.64 in 5.0 mi NW 17.3 mph - 0.00 in   Overcast
4:53 PM 1.9 °F -17.5 °F -8.0 °F 63% 30.65 in 10.0 mi NW 16.1 mph - 0.00 in   Mostly Cloudy
5:15 PM 1.9 °F -16.2 °F -4.0 °F 76% 30.54 in 2.5 mi NW 13.8 mph - 0.00 in   Overcast
5:21 PM 1.0 °F -18.0 °F -6.0 °F 72% 30.54 in 3.0 mi NW 15.0 mph - 0.00 in   Mostly Cloudy
5:25 PM -0.0 °F -18.0 °F -7.1 °F 72% 30.55 in 8.0 mi NW 12.7 mph - 0.00 in   Scattered Clouds
5:53 PM -2.0 °F -15.4 °F -8.0 °F 76% 30.67 in 10.0 mi NW 6.9 mph - 0.00 in   Partly Cloudy
6:53 PM -6.0 °F -21.5 °F -11.9 °F 75% 30.67 in 10.0 mi WNW 8.1 mph - N/A   Clear
7:53 PM -6.0 °F -21.5 °F -11.9 °F 75% 30.66 in 10.0 mi WNW 8.1 mph - N/A   Clear
8:53 PM -7.1 °F -23.9 °F -13.0 °F 75% 30.66 in 10.0 mi WNW 9.2 mph - N/A   Clear
9:53 PM -8.0 °F -23.9 °F -14.1 °F 75% 30.66 in 10.0 mi WNW 8.1 mph - N/A   Clear
10:53 PM -11.0 °F -28.8 °F -16.1 °F 78% 30.66 in 10.0 mi West 9.2 mph - N/A   Clear
11:53 PM -9.9 °F -28.6 °F -15.0 °F 78% 30.64 in 10.0 mi West 10.4 mph - N/A   Clear